Regional Weather Roundup
Issued by NWS Grand Forks, ND

Home | Current Version | Previous Version | Text Only | Print | Product List | Glossary Off
Versions: 1 2 3 4 5 6 7 8 9 10 11 12 13 14 15 16 17 18 19 20 21 22 23 24 25 26 27 28 29 30 31 32 33 34 35 36 37 38 39 40 41 42 43 44 45 46 47 48 49 50

000
ASUS43 KFGF 240031
RWRFGF
PRAIRIE TO PINES  WEATHER ROUNDUP
NATIONAL WEATHER SERVICE EASTERN NORTH DAKOTA/GRAND FORKS ND
700 PM CDT SAT MAY 23 2015

 **SATELLITE DATA USED TO AUGMENT SKY COVER AT AUTOMATED STATIONS**
 *****  WEATHER ACROSS EASTERN NORTH DAKOTA  *****

CITY           SKY/WX    TMP DP  RH WIND       PRES   REMARKS
GRAND FORKS    PTSUNNY   74  44  34 S15       30.08S
6HR MIN TEMP:  74; 6HR MAX TEMP:  78;

GRAND FRKS AFB MOSUNNY   73  44  35 S14       30.08F
GRAND FRKS NWS   N/A     68 N/A N/A S7          N/A
DEVILS LAKE    MOSUNNY   72  41  33 S15       30.08S
6HR MIN TEMP:  72; 6HR MAX TEMP:  73;

FARGO          MOSUNNY   70  45  40 S14       30.11F
WAHPETON ARPT  CLOUDY    68  43  40 SE10      30.11F
$$

 ***** WEATHER ACROSS CENTRAL AND WESTERN NORTH DAKOTA  *****

CITY           SKY/WX    TMP DP  RH WIND       PRES   REMARKS
BISMARCK       CLOUDY    63  49  60 SE3       30.10F
6HR MIN TEMP:  63; 6HR MAX TEMP:  67;

MINOT          MOSUNNY   73  38  27 S7        30.07S
6HR MIN TEMP:  72; 6HR MAX TEMP:  76;

JAMESTOWN      MOSUNNY   66  46  48 S10       30.09F
6HR MIN TEMP:  66; 6HR MAX TEMP:  71;

MINOT AFB      MOSUNNY   76  40  28 SE7       30.05F
GARRISON         N/A     66  45  46 S14       30.09R
WILLISTON      CLOUDY    71  38  29 SE10      30.08S
6HR MIN TEMP:  70; 6HR MAX TEMP:  75;

DICKINSON      LGT RAIN  58  46  64 SE12      30.08S
6HR MIN TEMP:  58; 6HR MAX TEMP:  63; 6HR PCP: TRACE;

HETTINGER      CLOUDY    59  46  62 E12       30.08F
6HR MIN TEMP:  56; 6HR MAX TEMP:  61; 6HR PCP: TRACE;

$$

 *****  OTHER AIRPORT OBSERVATIONS IN OUR AREA  *****

CITY           SKY/WX    TMP DP  RH WIND       PRES   REMARKS
WALHALLA         N/A     77  36  22 SE8       30.04S
GRAFTON AIRPOR FAIR      75  45  33 S7G14     30.07R
VALLEY CITY AR FAIR      68  45  42 SE7       30.10F
CANDO          FAIR      73  37  27 S9        30.07S
CAVALIER APRT  FAIR      77  32  19 SW3       30.04S
GWINNER        NOT AVBL
SHEYENNE NWR     N/A     71  45  38 S7        29.95S
ROLLA          FAIR      73  36  25 SW5       30.08S
 ***** THE ABOVE OBSERVATIONS ARE NON NWS ARE NOT QUALITY
       CONTROLLED AND MAY MIS-REPORT RAIN FOR SNOW...
$$

  *****  WEATHER ACROSS NORTHERN MINNESOTA  *****

CITY           SKY/WX    TMP DP  RH WIND       PRES   REMARKS
FLAG ISLAND    SUNNY     70  39  32 SW12      30.05S
WARROAD        SUNNY     75  43  31 SW3       30.08S
ROSEAU         SUNNY     77  36  22 W7        30.07F
HALLOCK        SUNNY     79  27  14 CALM      30.05S
THF RVR FALLS  SUNNY     73  41  31 SW10      30.10S
6HR MIN TEMP:  72; 6HR MAX TEMP:  75;

BAUDETTE       SUNNY     76  32  20 S6        30.08F
6HR MIN TEMP:  74; 6HR MAX TEMP:  79;

WASKISH        SUNNY     72  45  37 CALM      30.10S
CROOKSTON      SUNNY     73  41  31 SW12      30.10S
STEPHEN NDAWN    N/A     77  41  27 SW12        N/A
GREENBUSH NDAW   N/A     75  41  29 SW7         N/A
$$
  *****  WEATHER ACROSS CENTRAL AND WEST MINNESOTA  *****

CITY           SKY/WX    TMP DP  RH WIND       PRES   REMARKS
FOSSTON        MOSUNNY   72  39  30 S8        30.11F
BEMIDJI        MOSUNNY   73  41  32 SW7       30.11F
PARK RAPIDS    PTSUNNY   69  40  34 S12       30.15F
6HR MIN TEMP:  69; 6HR MAX TEMP:  75;

ELBOW LAKE     FAIR      66  46  48 SE6       30.12F
6HR MIN TEMP:  65; 6HR MAX TEMP:  69;

WADENA         PTSUNNY   66  43  42 SE6       30.15S
DETROIT LAKES  MOSUNNY   68  43  40 S8        30.14F
MOORHEAD       MOSUNNY   70  45  40 S8        30.12F
FERGUS FALLS   PTSUNNY   66  46  48 S6        30.13F
MORRIS MN      CLOUDY    66  46  48 E10       30.11F
STAPLES        PTSUNNY   66  43  42 SE5       30.15F
$$
  *****  WEATHER ELSEWHERE ACROSS MINNESOTA  *****

CITY           SKY/WX    TMP DP  RH WIND       PRES   REMARKS
DULUTH         MOSUNNY   71  42  35 SW18      30.14F
6HR MIN TEMP:  71; 6HR MAX TEMP:  78;

INTRNTL FALLS  SUNNY     77  34  21 W9        30.07F
6HR MIN TEMP:  75; 6HR MAX TEMP:  80;

ELY            MOSUNNY   73  30  20 SW5       30.09S
CLOQUET        MOSUNNY   70  39  32 SW7       30.16R
WHEATON        CLOUDY    64  48  55 SE8       30.13S
BRAINERD       PTSUNNY   66  42  41 SW9       30.16F
6HR MIN TEMP:  66; 6HR MAX TEMP:  72;

HIBBING        MOSUNNY   73  37  27 SW7       30.11F
6HR MIN TEMP:  73; 6HR MAX TEMP:  78;

ALEXANDRIA     CLOUDY    65  45  48 SE8       30.16F
6HR MIN TEMP:  64; 6HR MAX TEMP:  69;

SAINT CLOUD    CLOUDY    66  45  46 E5        30.15F
6HR MIN TEMP:  63; 6HR MAX TEMP:  68; 6HR PCP: TRACE;

MINNEAPOLIS    PTSUNNY   68  46  45 NE13      30.14F
6HR MIN TEMP:  68; 6HR MAX TEMP:  73;

$$

  *****  WEATHER ACROSS SOUTH DAKOTA  *****

CITY           SKY/WX    TMP DP  RH WIND       PRES   REMARKS
SIOUX FALLS    CLOUDY    65  52  62 S8        30.06F
6HR MIN TEMP:  63; 6HR MAX TEMP:  66;

BROOKINGS      CLOUDY    66  50  55 SE7       30.08F
WATERTOWN      CLOUDY    65  48  54 SE9       30.09F
6HR MIN TEMP:  64; 6HR MAX TEMP:  67;

HURON          CLOUDY    64  53  67 S8        30.07F
6HR MIN TEMP:  64; 6HR MAX TEMP:  67;

SISSETON         N/A     68  49  50 S12       30.09F
ABERDEEN       CLOUDY    66  49  54 SE7       30.08F
6HR MIN TEMP:  61; 6HR MAX TEMP:  67;

MITCHELL       CLOUDY    64  54  69 SE9       30.07F
PIERRE         CLOUDY    60  53  77 E8        30.04S
6HR MIN TEMP:  54; 6HR MAX TEMP:  62;

MOBRIDGE       CLOUDY    60  53  77 E10       30.06F
RAPID CITY     CLOUDY    58  50  75 E10       30.01F
6HR MIN TEMP:  54; 6HR MAX TEMP:  58;

$$

  *****  SOME WEATHER IN NEARBY STATES *****

CITY           SKY/WX    TMP DP  RH WIND       PRES   REMARKS
GLASGOW MT     MOSUNNY   71  37  28 E20       30.06S
6HR MIN TEMP:  69; 6HR MAX TEMP:  75;

GREAT FALLS MT CLOUDY    54  48  80 SW7       30.10R
6HR MIN TEMP:  53; 6HR MAX TEMP:  63; 6HR PCP: TRACE;

CHEYENNE WY    CLOUDY    47  44  90 E14       29.92F
6HR MIN TEMP:  47; 6HR MAX TEMP:  57; 6HR PCP:  0.10;

SCOTTSBLUFF NE LGT RAIN  55  50  83 SE13      29.93F
6HR MIN TEMP:  55; 6HR MAX TEMP:  60; 6HR PCP:  0.05;

OMAHA NE       CLOUDY    65  58  78 E5        30.06F
6HR MIN TEMP:  62; 6HR MAX TEMP:  65;

DES MOINES IA  CLOUDY    72  53  51 S6        30.10F
6HR MIN TEMP:  64; 6HR MAX TEMP:  76; 6HR PCP: TRACE;

DAVENPORT IA   PTSUNNY   78  47  33 S13       30.15F
6HR MIN TEMP:  76; 6HR MAX TEMP:  80;

CHICAGO IL     MOSUNNY   79  38  22 S10       30.18F
6HR MIN TEMP:  76; 6HR MAX TEMP:  80;

EAU CLAIRE WI  PTSUNNY   73  41  31 SW3       30.15F
6HR MIN TEMP:  68; 6HR MAX TEMP:  75; 6HR PCP: TRACE;

LA CROSSE WI   PTSUNNY   77  44  30 SE7       30.13F
6HR MIN TEMP:  73; 6HR MAX TEMP:  80;

$$

  *****  SOME NATIONAL WEATHER *****

CITY           SKY/WX    TMP DP  RH WIND       PRES   REMARKS
LA GUARDIA NY  PTCLDY    60  40  47 S12       30.33S
6HR MIN TEMP:  60; 6HR MAX TEMP:  70;

RALEIGH NC     PTCLDY    74  49  41 SE3       30.37R
6HR MIN TEMP:  74; 6HR MAX TEMP:  80;

ATLANTA GA     PTCLDY    78  46  32 E9        30.29S
6HR MIN TEMP:  78; 6HR MAX TEMP:  81;

NEW ORLEANS LA MOCLDY    82  68  62 SE13G20   30.11F
6HR MIN TEMP:  82; 6HR MAX TEMP:  87; 6HR PCP: TRACE;

OKLAHOMA CITY  TSTM      63  62  97 N12       29.92F
6HR MIN TEMP:  62; 6HR MAX TEMP:  70; 6HR PCP:  2.23;

ALBUQUERQUE NM PTSUNNY   70  20  15 S16       29.90S
6HR MIN TEMP:  64; 6HR MAX TEMP:  73;

SALT LAKE CITY LGT RAIN  57  47  69 N14       29.92S
6HR MIN TEMP:  55; 6HR MAX TEMP:  60; 6HR PCP: TRACE;




USA.gov is the U.S. government's official web portal to all federal, state and local government web resources and services.